RH
31 32 32 31 29 28 28 27 27 28 29 30 33 34 36 37 38 41 41 39 40 46 51 54 60 59 59 60 63 64 66 65 74 60 52 50 55 60 56 56 55 54 59
34 34 34 31 28 29 29 29 30 30 31 34 35 36 38 40 42 43 44 43 44 50 54 60 63 49 62 64 65 65 65 62 66 72 73 69 62 55 56 60 66 57 60
36 36 34 33 31 31 32 32 32 34 35 36 38 40 42 45 45 45 44 43 48 52 57 62 66 63 63 66 66 66 62 54 64 68 68 59 59 64 73 70 70 50 44
37 36 35 34 33 33 35 35 35 35 37 39 41 43 44 44 44 43 46 51 54 53 60 66 66 66 64 66 59 58 58 62 64 70 77 85 78 65 94 68 61 56 56
39 41 38 36 35 36 37 36 37 38 39 41 43 43 44 42 29 43 48 54 57 59 61 61 61 60 59 56 52 57 61 74 90 95 76 75 92 70 68 63 67 64 62
41 40 38 36 34 36 36 37 37 39 40 42 44 45 47 34 46 46 46 48 52 58 60 59 58 60 61 62 64 63 62 64 71 80 96 81 72 68 68 69 75 94 89
38 36 34 32 32 36 35 36 38 40 43 45 46 46 47 49 46 49 51 50 59 62 64 61 59 52 66 70 70 62 65 72 90 74 77 74 71 68 84 95 86 86 85
36 33 31 32 32 34 35 37 40 42 45 47 47 47 50 41 49 54 57 59 63 64 64 66 68 72 69 58 56 75 95 77 74 58 59 64 75 70 64 68 82 90 87
34 30 30 31 33 35 37 40 42 45 49 49 48 50 49 50 52 56 57 61 61 64 60 67 75 66 62 62 90 83 72 66 52 63 72 64 62 63 65 81 93 93 88
31 32 31 34 34 37 40 44 45 49 48 49 47 46 50 50 55 57 56 57 64 63 70 82 68 60 63 77 58 61 73 63 85 85 58 59 63 65 70 72 94 96 93
34 34 35 36 37 39 44 48 50 51 50 52 48 49 50 54 63 59 57 54 59 79 76 63 62 72 70 60 60 62 64 66 72 63 66 69 69 70 70 76 90 97 96
37 37 38 38 38 39 48 50 51 53 54 54 55 56 58 61 63 59 58 57 59 57 66 71 78 70 61 62 63 67 67 66 65 75 80 80 81 86 87 88 90 93 93
37 38 41 43 47 48 53 54 55 54 58 60 58 64 61 57 67 61 59 59 58 61 73 67 67 63 63 64 67 68 66 69 79 89 88 87 87 89 91 91 89 87 88
39 45 49 51 56 54 53 51 58 62 66 59 59 62 66 60 60 58 55 58 64 69 71 70 62 62 65 66 63 62 65 68 77 89 91 86 84 86 87 90 95 91 95
46 48 51 56 61 59 55 58 66 64 64 61 65 64 65 64 58 56 55 55 60 61 61 61 60 65 71 67 66 68 69 70 83 84 89 90 87 86 88 85 93 94 95
47 51 56 64 64 58 62 65 57 54 54 53 54 55 54 57 58 59 59 62 63 65 64 67 75 78 78 74 76 78 77 79 83 89 89 89 92 93 92 89 89 94 96
53 55 63 61 64 68 69 69 68 59 54 54 54 55 57 57 59 60 63 63 66 66 71 80 83 81 82 82 86 88 89 84 86 89 90 94 94 92 90 91 90 93 92
56 55 65 68 68 70 71 67 67 66 67 61 56 55 54 58 60 63 65 66 68 70 78 83 85 84 85 89 90 90 90 88 88 90 94 92 94 95 94 93 93 95 95
60 66 67 69 67 64 63 66 69 69 66 61 57 53 53 60 65 67 66 70 80 82 80 82 81 86 89 89 89 90 90 91 92 94 92 93 94 95 93 91 95 89 90
64 59 60 66 65 67 70 70 68 65 60 60 59 57 56 67 82 73 72 76 79 79 80 85 84 86 89 92 92 92 92 90 92 92 92 93 93 94 95 94 95 96 95
66 67 62 70 74 74 73 68 65 61 60 58 60 58 68 73 77 76 79 78 79 85 88 87 87 89 90 90 91 92 91 92 92 94 93 93 94 95 92 95 96 95 97
68 72 73 78 75 70 64 59 58 58 60 65 67 66 71 68 74 79 77 79 80 83 82 87 91 90 93 94 94 94 92 91 92 93 93 92 93 93 94 96 96 96 97
76 78 78 76 68 60 62 58 61 62 67 71 72 71 69 72 74 79 80 81 83 84 82 84 89 91 88 92 94 95 95 93 94 94 94 92 94 96 97 97 97 97 98
78 79 74 67 65 63 62 64 66 70 71 74 77 74 76 75 76 79 83 85 85 85 85 85 86 92 92 92 93 94 95 95 95 96 98 98 98 95 97 97 98 98 98
75 71 66 70 70 69 70 75 78 82 84 78 78 76 78 79 83 86 84 86 89 88 86 84 89 93 94 94 94 94 95 94 98 99 98 98 97 96 94 98 99 99 98
70 69 71 73 77 78 82 89 93 90 90 87 86 87 88 88 86 88 88 88 89 87 88 86 89 94 94 94 94 95 94 98 98 92 94 98 96 96 93 99 98 99 98
Wind_Speed
8 8 8 6 6 6 5 4 3 3 3 4 4 5 5 6 6 5 6 6 5 5 5 5 6 6 7 7 7 8 8 9 13 16 14 14 14 14 13 11 12 13 12
7 8 7 7 6 6 5 4 3 3 4 4 4 5 6 6 6 6 6 6 6 7 6 5 6 7 9 8 7 11 11 12 11 17 16 14 16 17 15 13 10 9 11
8 8 7 6 6 5 4 3 4 4 3 4 5 6 6 6 6 7 6 6 7 7 6 6 7 8 9 9 10 11 10 10 10 12 16 14 14 12 13 10 10 14 11
8 7 7 6 5 4 3 3 3 3 5 6 6 6 5 6 7 6 6 7 7 6 6 7 8 8 10 12 12 13 11 13 13 13 14 13 12 13 7 13 14 11 13
8 7 6 5 5 4 3 3 3 5 5 5 5 6 6 6 6 10 8 6 7 7 7 7 8 13 24 21 13 14 16 14 12 11 15 14 8 13 13 12 14 14 14
7 6 6 5 4 3 3 4 5 5 5 5 6 6 7 6 18 19 17 9 7 7 9 9 9 16 15 26 27 30 26 18 19 15 10 14 15 14 13 14 14 12 15
7 6 6 4 4 3 4 4 5 5 5 6 6 6 7 7 18 20 21 9 6 7 8 10 10 9 17 13 22 28 25 29 22 18 16 15 17 16 16 13 15 14 15
7 6 5 4 4 3 3 4 5 3 4 5 6 6 6 6 18 20 22 7 8 8 8 8 8 13 13 21 19 17 11 14 11 12 15 16 16 16 17 16 16 16 13
6 5 4 4 3 2 4 4 4 3 4 4 5 6 6 6 16 20 18 8 10 10 9 6 11 14 23 31 19 16 15 13 17 25 25 27 30 29 25 13 11 12 14
6 6 5 4 3 3 3 4 3 3 5 4 6 6 10 7 14 20 18 8 10 10 10 9 17 21 31 29 20 16 14 16 15 13 14 17 19 18 26 14 11 12 13
6 5 4 3 2 2 2 2 4 5 5 5 6 6 7 8 8 19 20 10 9 10 10 10 10 26 28 31 28 11 16 20 17 14 13 12 12 12 12 11 12 11 12
6 5 4 3 2 3 4 5 4 5 5 6 6 5 5 6 13 16 21 22 20 11 11 10 12 27 29 27 20 26 28 22 11 11 12 12 12 12 12 13 15 14 13
6 5 3 3 3 4 3 5 4 5 4 5 5 5 6 6 5 17 20 22 20 14 9 19 25 25 25 17 23 26 23 10 10 11 11 12 12 13 15 14 14 15 15
6 4 3 3 3 4 3 3 3 4 4 5 6 7 6 6 6 7 8 9 13 11 16 10 17 19 20 19 15 13 10 10 11 11 11 12 12 11 12 11 12 12 11
5 3 2 1 3 4 3 3 3 4 5 6 5 5 7 8 9 19 18 12 12 16 18 9 9 10 10 10 11 11 10 10 10 10 12 12 12 12 12 11 11 11 11
4 1 1 1 2 2 4 5 7 11 14 15 16 13 8 17 23 24 25 25 26 25 10 9 10 10 10 11 11 12 11 14 11 11 11 12 12 12 12 12 11 10 11
3 1 2 3 3 4 3 3 6 7 12 14 16 18 19 19 22 23 24 26 21 18 8 9 9 10 10 11 11 11 12 11 13 10 11 11 11 11 15 12 11 10 11
1 4 2 3 3 4 3 4 4 6 7 6 9 14 16 21 22 22 24 17 10 10 8 9 10 10 11 11 11 11 11 11 11 11 11 11 11 10 11 11 10 10 10
1 2 3 3 3 5 4 4 4 5 6 7 7 9 13 20 20 19 18 7 9 9 9 9 10 10 10 11 11 11 12 11 13 11 11 10 10 10 11 11 10 17 16
2 7 6 3 4 4 4 4 5 5 6 7 7 8 8 12 7 9 8 8 8 9 9 10 10 10 11 11 11 11 11 12 11 10 11 10 10 9 10 11 9 9 8
2 3 8 3 3 4 4 4 4 5 6 7 7 9 22 10 8 8 9 9 9 9 10 10 11 11 10 10 11 11 12 12 11 11 10 10 10 10 10 9 8 8 6
2 3 3 3 3 4 4 4 5 6 6 7 8 10 20 7 8 8 9 9 9 10 9 10 10 11 11 11 11 11 12 13 12 10 11 11 10 9 9 7 7 7 5
3 3 4 3 3 8 5 5 5 6 7 8 8 8 8 8 8 9 9 10 9 10 10 10 11 11 11 11 11 10 11 13 12 11 12 12 10 8 6 6 6 5 3
3 4 4 4 4 4 5 5 6 9 10 9 8 8 8 9 9 10 10 10 10 10 10 11 11 15 14 14 12 12 11 11 11 13 16 7 6 8 7 6 5 5 2
3 4 4 4 4 5 6 6 6 7 8 8 8 8 9 9 9 9 10 9 10 11 13 13 11 15 17 21 21 21 19 29 21 8 6 5 7 7 6 4 3 3 3
4 4 4 4 4 5 5 6 6 7 8 8 8 8 9 9 9 9 9 10 10 12 15 12 15 20 22 17 19 23 31 27 10 14 7 5 5 5 4 4 5 3 3
Wind_Direction
111 109 108 111 105 100 103 101 95 74 42 26 7 354 341 326 321 317 305 293 313 296 289 286 290 294 307 302 294 290 286 283 284 294 292 298 299 290 285 278 274 272 276
118 110 111 110 107 107 101 95 86 59 25 4 352 339 330 322 316 314 309 310 294 287 286 289 284 305 302 296 293 292 286 282 280 289 297 298 290 295 290 288 277 279 278
117 115 111 113 114 107 104 77 50 31 1 354 349 340 329 321 315 306 295 283 280 282 278 278 273 288 302 296 288 286 286 289 293 290 290 290 292 296 289 298 287 287 279
118 115 119 120 115 113 91 60 34 6 360 353 347 330 322 318 305 290 286 287 285 281 270 261 265 279 290 289 293 296 301 298 294 287 283 287 285 303 304 298 297 290 285
118 119 124 121 112 98 72 38 12 14 360 351 341 329 323 320 321 325 316 299 290 279 270 273 278 289 307 307 306 312 305 301 291 294 287 290 308 305 304 299 289 289 287
123 125 128 118 115 90 54 21 17 3 354 343 337 326 317 325 330 331 332 322 305 300 307 299 288 299 299 311 310 307 304 305 298 295 307 304 303 300 296 288 292 293 309
124 130 130 125 105 72 41 20 359 347 339 333 327 322 316 314 331 334 333 330 327 309 303 300 302 307 312 297 295 302 300 297 313 308 306 296 297 295 293 299 300 293 290
129 130 122 112 91 54 28 4 340 325 329 319 313 310 310 309 335 339 334 330 314 300 288 287 295 305 303 306 307 305 316 306 303 295 292 296 293 301 303 301 298 290 284
129 126 119 106 88 38 4 347 312 312 315 294 293 300 307 300 330 336 333 321 308 300 298 296 301 305 307 314 318 320 317 306 303 308 304 310 307 307 307 304 299 301 295
131 130 123 111 84 21 344 323 289 301 289 302 303 305 314 310 312 329 328 313 311 307 310 294 305 314 318 324 324 324 320 309 308 314 316 308 307 298 304 302 297 290 292
124 124 110 81 36 357 340 326 316 314 307 305 309 306 295 291 293 319 324 320 312 320 310 319 314 316 324 327 325 331 303 316 327 319 309 304 305 304 302 297 290 286 289
122 110 89 58 18 25 359 329 322 317 320 316 307 293 286 286 301 315 322 324 326 322 322 314 308 323 326 326 329 315 323 331 315 309 307 309 311 306 303 300 295 287 278
108 94 72 43 41 14 347 325 324 333 331 308 299 313 314 308 278 303 317 325 330 327 319 313 329 325 325 324 318 324 327 316 312 307 312 308 307 303 301 299 295 290 286
109 93 62 38 15 342 333 317 332 322 307 308 319 319 311 314 314 306 318 319 326 324 316 325 324 326 321 318 320 318 315 315 314 314 310 306 307 308 306 307 304 305 301
103 79 31 345 332 323 325 316 323 293 308 324 312 309 318 323 317 330 331 326 331 333 336 332 323 323 321 320 318 316 317 316 318 315 312 310 309 309 308 311 305 309 305
98 70 294 323 316 315 332 321 321 329 332 330 332 330 325 321 326 330 327 337 337 335 337 322 321 318 317 316 315 316 317 320 317 313 309 307 305 310 309 312 312 311 312
131 244 323 341 329 329 324 310 316 320 323 329 330 330 326 325 330 325 337 336 338 336 322 319 315 315 314 312 312 314 314 314 312 307 305 302 309 305 315 311 313 317 315
56 0 359 326 322 314 303 297 294 311 318 319 318 323 327 329 325 337 338 341 324 328 321 316 313 312 312 310 312 312 310 310 311 306 307 307 305 307 310 312 312 316 317
40 341 331 326 318 322 308 297 286 295 306 310 313 320 329 323 333 337 337 326 319 318 318 314 312 310 308 308 308 307 305 305 307 309 302 304 306 308 309 309 310 323 332
20 353 347 338 318 309 305 305 308 314 315 312 315 319 319 324 339 331 327 321 318 315 315 312 311 308 306 306 306 305 305 305 305 303 302 301 303 305 308 306 314 315 319
6 331 338 332 308 301 295 301 314 313 311 313 311 317 327 339 323 319 319 319 318 314 312 310 308 306 304 302 303 302 301 299 298 297 296 299 302 304 305 302 310 312 317
333 317 310 311 308 313 313 334 315 312 311 310 313 316 327 328 317 317 316 315 315 311 308 307 303 301 302 301 302 300 298 296 296 295 295 296 298 296 292 302 310 315 325
330 325 322 317 317 328 334 317 312 316 314 315 314 315 317 316 318 315 313 315 314 310 310 306 303 302 302 301 298 291 288 289 290 290 288 289 290 288 299 305 308 317 328
343 340 330 325 326 342 319 319 318 318 320 314 312 313 312 318 313 312 313 314 311 309 308 304 302 299 302 303 301 297 289 288 286 280 279 290 311 314 311 306 308 321 342
358 341 330 326 324 319 317 317 314 316 311 312 314 311 315 310 308 312 315 311 309 309 309 307 303 304 305 306 301 299 301 310 315 324 326 309 314 323 320 313 309 333 14
346 338 328 319 315 315 313 309 311 310 310 309 309 311 307 308 311 313 310 310 311 310 308 305 305 306 307 306 303 309 317 322 344 344 338 323 329 325 340 337 355 354 22